062  
ASUS41 KALY 221310  
RWRALY  
 
NEW YORK STATE HOURLY WEATHER ROUNDUP  
NATIONAL WEATHER SERVICE ALBANY NY  
900 AM EDT MON JUL 22 2024  
 
NOTE: "FAIR" INDICATES FEW OR NO CLOUDS BELOW 12,000 FEET WITH NO  
SIGNIFICANT WEATHER AND/OR NO S TO VISIBILITY
.  
 
NYZ032-033-038>043-046>054-057>066-NYZ062>081-082-084-221400-  
EAST  
 
 
CITY SKY/WX TMP DP RH WIND PRES REMARKS
 
ALBANY PTSUNNY 70 64 81 NW3 30.10F  
GLENS FALLS PTSUNNY 68 63 84 CALM 30.10S  
POUGHKEEPSIE MOSUNNY 74 65 73 CALM 30.08S  
NEWBURGH SUNNY 73 66 78 VRB5 30.09S  
MONTGOMERY MOSUNNY 72 65 78 CALM 30.09S  
WHITE PLAINS PTSUNNY 77 70 79 VRB5 30.08F  
ISLIP PTSUNNY 77 68 73 SW3 30.09S  
NEW YORK CITY CLOUDY 75 68 78 NE8 30.07S  
CENTRAL PARK CLOUDY 78 67 68 CALM 30.10S  

 
 
NYZ005>009-017-018-044>046-055-056-221400-  
CENTRAL  
 
 
CITY SKY/WX TMP DP RH WIND PRES REMARKS
 
FULTON MOSUNNY 70 65 84 VRB5 30.07S  
SYRACUSE PTSUNNY 74 63 68 E5 30.07F  
ROME MOSUNNY 68 62 81 SE6 30.09F  
ELMIRA MOSUNNY 68 64 87 CALM 30.07F  
BINGHAMTON SUNNY 69 62 78 SE6 30.10F  

 
 
NYZ026>034-041>043-087-221400-  
NORTH  
 
 
CITY SKY/WX TMP DP RH WIND PRES REMARKS
 
WATERTOWN MOSUNNY 72 63 73 S3 30.06S  
FORT DRUM MOSUNNY 70 62 75 SE5 30.04S  
OGDENSBURG MOSUNNY 70 64 83 CALM 30.05S  
MASSENA SUNNY 68 62 81 SW7 30.07S  
SARANAC LAKE MOSUNNY 66 58 75 SW6 30.11R  
PLATTSBURGH SUNNY 69 62 78 SE5 30.08S  

 
 
NYZ001>004-010>016-019>021-085-221400-  
WEST  
 
 
CITY SKY/WX TMP DP RH WIND PRES REMARKS
 
NIAGARA FALLS SUNNY 73 64 73 NW3 30.04F  
BUFFALO MOSUNNY 74 62 66 CALM 30.04F  
DUNKIRK MOSUNNY 76 64 66 CALM 30.04S  
JAMESTOWN PTSUNNY 66 63 90 CALM 30.10R  
WELLSVILLE MOSUNNY 68 62 81 CALM 30.12F  
ROCHESTER MOSUNNY 73 64 73 CALM 30.05F  
PENN YAN SUNNY 71 64 78 SW6 30.08S  

 
 
KEY  
WCI = WIND CHILL INDEX  
VSB = VISIBILITY  
HX = HEAT INDEX  

 
 
 
CLICK HERE TO GO TO PREVIOUS BULLETINS.

The Nexlab NY Page
The Nexlab VT Page
The Nexlab MA Page
The Nexlab CT Page Main Text Page